Regional Weather Roundup
Issued by NWS

Home | Current Version | Previous Version | Graphics & Text | Print | Product List | Glossary On
Versions: 1 2 3 4 5 6 7 8 9 10 11 12 13 14 15 16 17 18 19 20 21 22 23 24 25 26 27 28 29 30 31 32 33 34 35 36 37 38 39 40 41 42 43 44 45 46 47 48 49 50
000
ASUS43 KIND 072209
RWRIN

WEATHER ROUNDUP FOR INDIANA
NATIONAL WEATHER SERVICE INDIANAPOLIS IN
500 PM EST SUN FEB 07 2016

NOTE: "FAIR" INDICATES FEW OR NO CLOUDS BELOW 12,000 FEET WITH NO
SIGNIFICANT WEATHER AND/OR OBSTRUCTIONS TO VISIBILITY.

* - STATION DOES NOT REPORT WEATHER SUCH AS PRECIPITATION OR FOG.

+ - STATION NOT QUALITY CONTROLLED BY THE NATIONAL WEATHER SERVICE.
    USE DATA WITH CAUTION...ESPECIALLY DEWPOINT AND RELATIVE
    HUMIDITY OBSERVATIONS.

INZ001>003-010>013-019-020-072300-
NORTHWEST INDIANA

CITY           SKY/WX    TMP DP  RH WIND       PRES   REMARKS
GARY /AIRPORT/ PTSUNNY   46  30  53 SW16G32   29.76R
LA PORTE +     PTSUNNY   46  34  65 SW15G23   29.75S
MICHIGAN CITY+ CLOUDY    45  34  65 SW14G21   29.75S
MONTICELLO +   SUNNY     46  30  53 SW14G23   29.78S
RENSSELAER +   CLOUDY    45  32  61 SW15G23   29.79R
VALPARAISO     MOSUNNY   45  33  63 SW18      29.76S

$$

LMZ046-743>745-072300-
SOUTHERN LAKE MICHIGAN

STATION/POSITION TIME  TEMP    WIND        PRES    WAVE
                       AIR SEA DIR/SP/G            HT
                 (UTC) (F)     (DEG/KT/KT) (MB)    (FT)
BURNS HARBOR     2117   45     240/ 18/ 25 1007.8S
MICHIGAN CITY    2100   44     200/ 22/ 26   N/A

$$

INZ004-005-014>016-021>024-072300-
NORTH CENTRAL INDIANA

CITY           SKY/WX    TMP DP  RH WIND       PRES   REMARKS
ELKHART          N/A     45  30  57 SW14      29.76
GOSHEN         CLOUDY    46  32  58 SW21G26   29.75S
LOGANSPORT +   SUNNY     46  28  49 SW17G24   29.79F
PERU/GRISSOM   MOSUNNY   47  33  57 W14       29.77S
ROCHESTER +    MOSUNNY   48  28  46 SW15      29.78S
SOUTH BEND     CLOUDY    44  32  62 SW17G24   29.76S
WARSAW +       PTSUNNY   46  32  57 SW16G26   29.76S

$$

INZ006>009-017-018-025>027-072300-
NORTHEAST INDIANA

CITY           SKY/WX    TMP DP  RH WIND       PRES   REMARKS
ANGOLA *+      PTCLDY    45  34  65 SW10      29.75S
AUBURN +       CLOUDY    48  28  46 SW9       29.77S
FORT WAYNE     PTSUNNY   48  29  47 SW17      29.79R
HUNTINGTON +   MOSUNNY   49  23  36 SW9       29.78S

$$

INZ028-029-035-036-043>045-051>053-072300-
WEST CENTRAL INDIANA

CITY           SKY/WX    TMP DP  RH WIND       PRES   REMARKS
GREENCASTLE +  CLOUDY    50  23  34 SW8       29.83S
LAFAYETTE      CLOUDY    48  30  49 W16G23    29.79S
TERRE HAUTE    CLOUDY    50  31  48 SW16      29.83F

$$

INZ030>032-037>040-046>048-054>057-064-065-072300-
CENTRAL INDIANA

CITY           SKY/WX    TMP DP  RH WIND       PRES   REMARKS
COLUMBUS       SUNNY     54  28  37 S18       29.85F
FISHERS *+     MOSUNNY   50  32  50 SW16G28   29.81R
FRANKFORT +    SUNNY     48  24  38 SW16G22   29.81S
GREENWOOD *+   MOSUNNY   52  30  43 SW12G20   29.83S
INDIANAPOLIS   PTSUNNY   52  26  36 SW24G31   29.81R
-EAGLE CREEK   MOSUNNY   52  28  39 SW15G23   29.81R
KOKOMO *+        N/A     48  30  49 SW18G24   29.78F
MARION +       CLOUDY    50  19  30 SW17      29.80S
MT COMFORT *+  SUNNY     50  27  40 SW18      29.82S
SHELBYVILLE    SUNNY     52  31  44 S14       29.82F
ZIONSVILLE +   MOSUNNY   51  31  47 SW21G31   29.80F

$$

INZ033-034-041-042-049-050-058-059-072300-
EAST CENTRAL INDIANA

CITY           SKY/WX    TMP DP  RH WIND       PRES   REMARKS
MUNCIE         MOSUNNY   51  28  41 SW20G26   29.80S

$$

INZ060-061-067>069-081>083-085>088-072300-
SOUTHWEST INDIANA

CITY           SKY/WX    TMP DP  RH WIND       PRES   REMARKS
EVANSVILLE     SUNNY     56  27  32 SW20      29.90S
HUNTINGBURG *+   N/A     54  28  37 SW14G23   29.89F
WASHINGTON +   CLOUDY    53  26  35 SW16G25   29.87S

$$

INZ062-063-066-070>080-084-089>092-072300-
SOUTH CENTRAL AND SOUTHEAST INDIANA

CITY           SKY/WX    TMP DP  RH WIND       PRES   REMARKS
BEDFORD +      MOSUNNY   54  27  35 SW21G26   29.86F
BLOOMINGTON    CLOUDY    51  26  37 SW15G25   29.85R
MADISON *+     SUNNY     52  21  30 S12G20    29.90F
NORTH VERNON + SUNNY     52  25  35 SW16G25   29.87F
SEYMOUR +      SUNNY     55  30  38 SW16G23   29.86F

$$





USA.gov is the U.S. government's official web portal to all federal, state and local government web resources and services.